PSLV R/B, 46915

Orbit data source: Space-Track

PSLV R/B, 46915 is space debris in LEO originally from a launch on Sat, 07 Nov 2020 UTC launched from the Sirharikota (SRI). Debris objects in space refer to the collection of defunct objects orbiting the Earth. Examples of debris include non-operational satellites, rocket bodies, and fragments generated from explosions, collisions, or faulty payload assembly.

Loading next visibility...
Identifier
46915, 2020-081L
Orbit
LEO
Country
Flag of ININ / IND
Related business
Manufacturer
VSSC/LPSC
Mission
Spacecraft
Bus & Motor
PS-4DL, Unknown motor
Mass
920 kg wet, 920 kg dry
Launch date (UTC)
2020-11-07 (5 years ago)
Launch vehicle
Unknown
Launch site
Sirharikota (SRI)
Object type
Payload
Rocket body
Debris
Shape & HBR
Cyl + Cyl + 2 Nozzle, 1.5 m
Radar Cross Section
3.727 m², Large (>1 m²)

Expand to show TLE details & history
Last TLE update: 7 hours ago

TLE from 7 hours ago
0 PSLV R/B
1 46915U 20081L   26123.50453561  .00012143  00000-0  32472-3 0  9991
2 46915  36.8440 158.7298 0024317 254.2231 105.5839 15.37134187304208
Epoch: 2026-05-03T12:06Z
TLE epoch observation values (Epoch: 2026-05-03T12:06:31.876Z)
Latitude
-0.00001°
Longitude
115.68984°
Altitude
458.185 km
Speed
7.637 km/s
True Right ascension
10h 34m 55s
True Declination
0° 00' 00"
Sunlit
Object was in full shadow at epoch
Visualization orbit readout
Latitude
Unknown
Longitude
Unknown
Altitude
Unknown
Speed
Unknown
Apparent Right ascension
Unknown
Apparent Declination
Unknown
Sunlit
N/A
Visualization observer readout
Local Sidereal Time
02:48:18
Azimuth
Unknown
Elevation
Unknown
Doppler factor
Unknown
Orbital elements
Apogee altitude
474.185 km
Perigee altitude
440.941 km
Semi-major axis
6,835.7 km
Eccentricity
0.00243
Inclination
36.844°
RAAN
158.7298°
Arg. of periapsis
254.2231°
True anomaly
105.85209°
Mean anomaly
105.5839°
Eccentric anomaly
105.71802°
Mean motion
3.84033 °/min
Orbital period
93.74 mins
BSTAR
0.00032472
Loading maneuver chart data...
Computing Atmospheric mass density...
Loading historical data...
Loading historical data...
Loading historical data...
Loading historical data...
Loading historical data...
Loading historical data...
Loading historical data...

Documentation

Showing up to 5 results
|